Regional Weather Roundup
Issued by NWS State College, PA

Home | Current Version | Previous Version | Text Only | Print | Product List | Glossary Off
Versions: 1 2 3 4 5 6 7 8 9 10 11 12 13 14 15 16 17 18 19 20 21 22 23 24 25 26 27 28 29 30 31 32 33 34 35 36 37 38 39 40 41 42 43 44 45 46 47 48 49 50

328
ASUS41 KCTP 280503
RWRCTP

REGIONAL WEATHER ROUNDUP
NATIONAL WEATHER SERVICE STATE COLLEGE PA
100 AM EDT SAT MAY 28 2016

Note: "fair" indicates few or no clouds below 12,000 feet with no
significant weather and/or obstructions to visibility.

* = STATION THAT DOES NOT REPORT PRECIPITATION /E.G. RAIN...SNOW...ETC/
    THUNDER OR FOG.

PAZ002>004-007>009-013>016-020>023-029>032-280600-
WESTERN PENNSYLVANIA

CITY           SKY/WX    TMP DP  RH WIND       PRES   REMARKS
ERIE           CLOUDY    72  64  76 S5        30.03R
MEADVILLE      MOCLDY    69  61  75 S3        30.07S
FRANKLIN*      MOCLDY    70  61  73 S3        30.11S
NEW CASTLE     FAIR      66  64  93 CALM      30.07S
BEAVER COUNTY  NOT AVBL
BUTLER*        CLEAR     66  63  88 CALM      30.11S
PITTSBURGH INT PTCLDY    74  62  66 CALM      30.07S
PITTSBURGH     CLEAR     72  62  71 S7        30.08R
INDIANA*       PTCLDY    70  64  83 CALM      30.13S
LATROBE        CLEAR     66  66 100 CALM      30.10S
WASHINGTON CO* PTCLDY    64  61  88 CALM      30.09S
$$

PAZ004>006-010>012-017>019-024>028-033>037-041-042-045-046-049>053-280600-
CENTRAL PENNSYLVANIA

CITY           SKY/WX    TMP DP  RH WIND       PRES   REMARKS
BRADFORD       PTCLDY    59  57  93 CALM      30.12S
DUBOIS         CLEAR     67  60  78 CALM      30.10S
CLEARFIELD     PTCLDY    66  60  81 CALM      30.11S
JOHNSTOWN      CLEAR     69  58  67 SW7       30.14F
ALTOONA        PTCLDY    66  63  90 CALM      30.12S
STATE COLLEGE  CLEAR     67  64  90 SW5       30.10S
WILLIAMSPORT   PTCLDY    69  65  86 CALM      30.06R
SELINSGROVE    PTCLDY    70  65  84 CALM      30.07S
FT INDIANTOWN  MOCLDY    70  67  89 CALM      30.08S
CAPITAL CITY   MOCLDY    70  67  90 CALM      30.07F
HARRISBURG     MOCLDY    71  66  84 CALM      30.07S
YORK           MOCLDY    70  66  87 CALM      30.09R
$$

PAZ038>040-043-044-047-048-054-055-060>062-067>071-280600-
EASTERN PENNSYLVANIA

CITY           SKY/WX    TMP DP  RH WIND       PRES   REMARKS
SCRANTON       CLOUDY    70  65  84 CALM      30.08R
MOUNT POCONO   PTCLDY    69  65  86 W8        30.13R
ALLENTOWN      PTCLDY    75  66  73 SW6       30.07S
QUAKERTOWN*    CLEAR     73  68  83 SW3       30.10S
READING        PTCLDY    74  65  73 S9        30.07S
LANCASTER      CLEAR     72  65  78 SW6       30.09R
COATESVILLE    CLEAR     72  64  78 VRB3      30.12S
POTTSTOWN      PTCLDY    74  67  78 SW3       30.10S
BLUE BELL      PTCLDY    73  63  68 SW5       30.09S
DOYLESTOWN     CLEAR     73  66  78 S6        30.08S
WILLOW GROVE   NOT AVBL
NORTH PHILA    CLEAR     75  62  64 SW9       30.11R
PHILADELPHIA   PTCLDY    73  60  63 S8        30.10S
$$




USA.gov is the U.S. government's official web portal to all federal, state and local government web resources and services.